EZY196 EGKK-LPPR

Flight info

Callsign EZY196
Flight time N/A
Altitude 35000
Route NOVM1X NOVMA L620 SAM M195 LORKU EBOMO COQUE KORUL ELTEP T328 ASPOR ASPO3T
Aircraft A20N/M-SDE2E3FGHIJ1RWXY/LB1

Departure

Time 2026-04-14 14:31
Airport London Gatwick Airport (EGKK)

Arrival

Time N/A
Airport Francisco de Sá Carneiro Airport (LPPR)
Time Latitude Longitude Altitude Speed Heading
2026-04-14 14:09 51.15877 -0.17308 204 ft 0 kts 348°
2026-04-14 14:20 51.15871 -0.17306 204 ft 1 kts 348°
2026-04-14 14:20 51.15867 -0.17304 204 ft 1 kts 348°
2026-04-14 14:20 51.15859 -0.17302 211 ft 1 kts 348°
2026-04-14 14:20 51.15852 -0.17299 208 ft 1 kts 348°
2026-04-14 14:21 51.15844 -0.17297 204 ft 1 kts 345°
2026-04-14 14:21 51.15837 -0.17293 204 ft 1 kts 338°
2026-04-14 14:21 51.15833 -0.17291 212 ft 1 kts 334°
2026-04-14 14:21 51.15826 -0.17285 209 ft 1 kts 327°
2026-04-14 14:22 51.15819 -0.17279 217 ft 1 kts 320°
2026-04-14 14:22 51.15803 -0.17244 210 ft 2 kts 286°
2026-04-14 14:22 51.15800 -0.17193 211 ft 3 kts 264°
2026-04-14 14:22 51.15800 -0.17185 211 ft 0 kts 263°
2026-04-14 14:25 51.15799 -0.17209 207 ft 5 kts 266°
2026-04-14 14:25 51.15783 -0.17254 210 ft 4 kts 228°
2026-04-14 14:25 51.15787 -0.17274 211 ft 2 kts 275°
2026-04-14 14:25 51.15782 -0.17322 207 ft 14 kts 262°
2026-04-14 14:26 51.15738 -0.17486 217 ft 18 kts 200°
2026-04-14 14:26 51.15622 -0.17461 210 ft 17 kts 171°
2026-04-14 14:26 51.15500 -0.17419 208 ft 19 kts 165°
2026-04-14 14:26 51.15439 -0.17395 207 ft 0 kts 167°
2026-04-14 14:27 51.15412 -0.17387 208 ft 9 kts 168°
2026-04-14 14:27 51.15330 -0.17360 204 ft 15 kts 168°
2026-04-14 14:27 51.15232 -0.17279 213 ft 16 kts 132°
2026-04-14 14:27 51.15178 -0.17207 211 ft 6 kts 80°
2026-04-14 14:28 51.15184 -0.17127 210 ft 10 kts 77°
2026-04-14 14:28 51.15208 -0.16960 204 ft 19 kts 78°
2026-04-14 14:28 51.15215 -0.16910 204 ft 0 kts 78°
2026-04-14 14:29 51.15215 -0.16848 210 ft 11 kts 101°
2026-04-14 14:29 51.15173 -0.16784 215 ft 12 kts 156°
2026-04-14 14:30 51.15092 -0.16790 215 ft 7 kts 239°
2026-04-14 14:30 51.15099 -0.16928 203 ft 26 kts 267°
2026-04-14 14:30 51.15065 -0.17224 204 ft 29 kts 255°
2026-04-14 14:30 51.14974 -0.17849 211 ft 100 kts 257°
2026-04-14 14:31 51.14773 -0.19332 209 ft 170 kts 258°
2026-04-14 14:31 51.14495 -0.21260 888 ft 182 kts 256°
2026-04-14 14:31 51.14166 -0.23295 1734 ft 201 kts 255°
2026-04-14 14:31 51.13807 -0.25670 2220 ft 244 kts 257°
2026-04-14 14:32 51.13427 -0.28592 2364 ft 294 kts 258°
2026-04-14 14:32 51.12985 -0.32046 2373 ft 341 kts 258°
2026-04-14 14:32 51.12466 -0.35958 2370 ft 380 kts 258°
2026-04-14 14:32 51.11902 -0.40102 3093 ft 374 kts 257°
2026-04-14 14:33 51.11257 -0.44057 3315 ft 366 kts 253°
2026-04-14 14:33 51.10394 -0.47808 3291 ft 365 kts 246°
2026-04-14 14:33 51.09288 -0.51427 3305 ft 363 kts 241°
2026-04-14 14:33 51.07938 -0.54909 3144 ft 378 kts 238°
2026-04-14 14:34 51.05623 -0.61980 3192 ft 338 kts 249°
2026-04-14 14:34 51.04971 -0.65438 3219 ft 317 kts 257°
2026-04-14 14:34 51.04552 -0.68772 3258 ft 297 kts 259°
2026-04-14 14:35 51.04152 -0.71875 3352 ft 277 kts 258°
2026-04-14 14:35 51.03761 -0.74778 3415 ft 260 kts 258°
2026-04-14 14:35 51.03386 -0.77564 3165 ft 256 kts 258°
2026-04-14 14:35 51.03013 -0.80303 3067 ft 247 kts 257°
2026-04-14 14:36 51.02654 -0.82909 3083 ft 234 kts 258°
2026-04-14 14:36 51.02318 -0.85363 3119 ft 221 kts 258°
2026-04-14 14:36 51.01994 -0.87736 2895 ft 219 kts 258°
2026-04-14 14:36 51.01676 -0.90065 2651 ft 219 kts 258°
2026-04-14 14:37 51.01348 -0.92517 2668 ft 238 kts 258°
2026-04-14 14:37 51.00970 -0.95260 2984 ft 261 kts 258°
2026-04-14 14:37 51.00574 -0.98143 3522 ft 272 kts 258°
2026-04-14 14:37 51.00167 -1.01087 3784 ft 273 kts 257°
2026-04-14 14:38 50.99748 -1.04107 3877 ft 292 kts 257°
2026-04-14 14:38 50.99311 -1.07278 4531 ft 299 kts 257°
2026-04-14 14:38 50.98869 -1.10465 6015 ft 284 kts 257°
2026-04-14 14:38 50.98462 -1.13407 7475 ft 271 kts 257°
2026-04-14 14:39 50.98049 -1.16382 8528 ft 277 kts 257°
2026-04-14 14:39 50.97633 -1.19375 9138 ft 283 kts 257°
2026-04-14 14:39 50.97208 -1.22437 9501 ft 286 kts 257°
2026-04-14 14:39 50.96778 -1.25523 9715 ft 286 kts 257°
2026-04-14 14:40 50.96346 -1.28617 9840 ft 287 kts 257°
2026-04-14 14:40 50.95906 -1.31711 9867 ft 287 kts 255°
2026-04-14 14:40 50.95044 -1.34532 9873 ft 287 kts 232°
2026-04-14 14:40 50.93548 -1.36615 9872 ft 288 kts 213°
2026-04-14 14:41 50.91861 -1.38340 9870 ft 288 kts 213°
2026-04-14 14:41 50.90182 -1.40067 9865 ft 287 kts 213°
2026-04-14 14:41 50.88502 -1.41807 9875 ft 293 kts 213°
2026-04-14 14:41 50.86766 -1.43612 10562 ft 299 kts 213°
2026-04-14 14:42 50.85072 -1.45373 11965 ft 282 kts 213°
2026-04-14 14:42 50.83456 -1.47054 13144 ft 277 kts 213°
2026-04-14 14:42 50.81828 -1.48745 13893 ft 285 kts 213°
2026-04-14 14:42 50.80118 -1.50521 14349 ft 304 kts 213°
2026-04-14 14:43 50.78279 -1.52428 14637 ft 327 kts 213°
2026-04-14 14:43 50.76331 -1.54446 14798 ft 351 kts 213°
2026-04-14 14:43 50.74256 -1.56591 14869 ft 359 kts 213°
2026-04-14 14:43 50.72169 -1.58744 14876 ft 358 kts 213°
2026-04-14 14:44 50.70084 -1.60894 14878 ft 358 kts 213°
2026-04-14 14:44 50.68001 -1.63042 14874 ft 358 kts 213°
2026-04-14 14:44 50.65912 -1.65192 14879 ft 358 kts 213°
2026-04-14 14:44 50.63827 -1.67337 14875 ft 358 kts 213°
2026-04-14 14:45 50.61741 -1.69480 14874 ft 358 kts 213°
2026-04-14 14:45 50.59652 -1.71623 14878 ft 358 kts 213°
2026-04-14 14:45 50.57567 -1.73760 14874 ft 358 kts 213°
2026-04-14 14:45 50.55482 -1.75895 14876 ft 358 kts 213°
2026-04-14 14:46 50.53394 -1.78031 14868 ft 358 kts 213°
2026-04-14 14:46 50.51304 -1.80167 14865 ft 358 kts 213°
2026-04-14 14:46 50.49217 -1.82297 14984 ft 357 kts 213°
2026-04-14 14:46 50.47094 -1.84463 15113 ft 373 kts 213°
2026-04-14 14:47 50.44892 -1.86705 15719 ft 380 kts 213°
2026-04-14 14:47 50.42658 -1.88979 16463 ft 383 kts 213°
2026-04-14 14:47 50.40404 -1.91269 17160 ft 388 kts 213°
2026-04-14 14:47 50.38127 -1.93581 17830 ft 392 kts 213°
2026-04-14 14:48 50.35827 -1.95912 18494 ft 396 kts 213°
2026-04-14 14:48 50.33506 -1.98262 19141 ft 399 kts 213°
2026-04-14 14:48 50.31164 -2.00631 19770 ft 403 kts 213°
2026-04-14 14:48 50.28795 -2.03024 20383 ft 407 kts 213°
2026-04-14 14:49 50.26404 -2.05437 20970 ft 412 kts 213°
2026-04-14 14:49 50.24012 -2.07847 21385 ft 418 kts 213°
2026-04-14 14:49 50.21525 -2.10305 21740 ft 429 kts 212°
2026-04-14 14:49 50.18949 -2.12807 21892 ft 442 kts 212°
2026-04-14 14:50 50.16297 -2.15373 22165 ft 451 kts 212°
2026-04-14 14:50 50.13623 -2.17963 22670 ft 454 kts 212°
2026-04-14 14:50 50.10963 -2.20540 23144 ft 457 kts 212°
2026-04-14 14:50 50.08219 -2.23200 23612 ft 461 kts 212°
2026-04-14 14:51 50.05489 -2.25845 24061 ft 464 kts 212°
2026-04-14 14:51 50.02770 -2.28475 24502 ft 467 kts 212°
2026-04-14 14:51 50.00000 -2.31151 24907 ft 470 kts 212°
2026-04-14 14:51 49.97217 -2.33837 25308 ft 472 kts 212°
2026-04-14 14:52 49.94412 -2.36540 25688 ft 475 kts 212°
2026-04-14 14:52 49.91592 -2.39253 26054 ft 478 kts 212°
2026-04-14 14:52 49.88759 -2.41976 26401 ft 480 kts 212°
2026-04-14 14:52 49.85915 -2.44708 26709 ft 482 kts 212°
2026-04-14 14:53 49.83057 -2.47455 26976 ft 484 kts 212°
2026-04-14 14:53 49.80180 -2.50215 27209 ft 486 kts 212°
2026-04-14 14:53 49.77307 -2.52968 27415 ft 488 kts 212°
2026-04-14 14:53 49.75390 -2.54802 27547 ft 488 kts 212°
2026-04-14 14:54 49.72496 -2.57566 27774 ft 488 kts 212°
2026-04-14 14:54 49.69608 -2.60321 28021 ft 488 kts 212°
2026-04-14 14:54 49.66719 -2.63073 28257 ft 487 kts 212°
2026-04-14 14:54 49.63828 -2.65821 28494 ft 487 kts 212°
2026-04-14 14:55 49.60951 -2.68554 28724 ft 486 kts 212°
2026-04-14 14:55 49.58071 -2.71284 28952 ft 486 kts 212°
2026-04-14 14:55 49.55189 -2.74013 29175 ft 485 kts 212°
2026-04-14 14:55 49.52313 -2.76733 29394 ft 485 kts 212°
2026-04-14 14:56 49.46565 -2.82157 29832 ft 484 kts 212°
2026-04-14 14:56 49.43734 -2.84823 30073 ft 484 kts 212°
2026-04-14 14:56 49.40864 -2.87522 30316 ft 483 kts 212°
2026-04-14 14:57 49.38000 -2.90212 30564 ft 483 kts 212°
2026-04-14 14:57 49.35134 -2.92900 30820 ft 482 kts 212°
2026-04-14 14:57 49.32274 -2.95578 31081 ft 482 kts 211°
2026-04-14 14:57 49.29408 -2.98259 31346 ft 481 kts 211°
2026-04-14 14:58 49.26550 -3.00927 31605 ft 480 kts 211°
2026-04-14 14:58 49.23698 -3.03587 31866 ft 480 kts 211°
2026-04-14 14:58 49.20850 -3.06240 32116 ft 479 kts 211°
2026-04-14 14:58 49.18000 -3.08891 32349 ft 479 kts 211°
2026-04-14 14:59 49.15153 -3.11535 32592 ft 478 kts 211°
2026-04-14 14:59 49.12310 -3.14172 32825 ft 478 kts 211°
2026-04-14 14:59 49.09472 -3.16802 33054 ft 477 kts 211°
2026-04-14 14:59 49.06630 -3.19430 33277 ft 477 kts 211°
2026-04-14 15:00 49.03792 -3.22052 33496 ft 476 kts 211°
2026-04-14 15:00 49.00957 -3.24667 33709 ft 476 kts 211°
2026-04-14 15:00 48.98127 -3.27275 33917 ft 475 kts 211°
2026-04-14 15:00 48.95301 -3.29875 34121 ft 475 kts 211°
2026-04-14 15:01 48.92473 -3.32473 34322 ft 474 kts 211°
2026-04-14 15:01 48.89643 -3.35070 34517 ft 474 kts 211°
2026-04-14 15:01 48.86859 -3.37622 34700 ft 474 kts 211°
2026-04-14 15:01 48.84034 -3.40207 34879 ft 473 kts 211°
2026-04-14 15:02 48.78401 -3.45352 34871 ft 472 kts 211°
2026-04-14 15:02 48.72752 -3.50498 34868 ft 473 kts 211°
2026-04-14 15:03 48.67116 -3.55619 34868 ft 473 kts 211°
2026-04-14 15:03 48.61467 -3.60738 34869 ft 473 kts 211°
2026-04-14 15:04 48.55823 -3.65839 34869 ft 473 kts 211°
2026-04-14 15:04 48.50170 -3.70933 34868 ft 473 kts 211°
2026-04-14 15:05 48.44509 -3.76022 34868 ft 473 kts 211°
2026-04-14 15:05 48.38848 -3.81098 34868 ft 474 kts 211°
2026-04-14 15:06 48.33221 -3.86131 34870 ft 473 kts 211°
2026-04-14 15:06 48.27558 -3.91183 34869 ft 473 kts 211°
2026-04-14 15:07 48.21897 -3.96219 34868 ft 473 kts 211°
2026-04-14 15:07 48.16239 -4.01239 34869 ft 472 kts 211°
2026-04-14 15:08 48.10579 -4.06248 34869 ft 473 kts 211°
2026-04-14 15:08 48.04917 -4.11246 34868 ft 472 kts 211°
2026-04-14 15:09 47.99250 -4.16236 34869 ft 472 kts 211°
2026-04-14 15:09 47.93581 -4.21215 34868 ft 472 kts 211°
2026-04-14 15:10 47.87921 -4.26175 34869 ft 472 kts 211°
2026-04-14 15:10 47.82291 -4.31099 34869 ft 472 kts 211°
2026-04-14 15:11 47.76691 -4.36200 34869 ft 472 kts 212°
2026-04-14 15:11 47.71139 -4.41399 34869 ft 472 kts 212°
2026-04-14 15:12 47.65571 -4.46563 34871 ft 472 kts 212°
2026-04-14 15:12 47.59991 -4.51705 34869 ft 472 kts 212°
2026-04-14 15:13 47.54404 -4.56837 34869 ft 472 kts 212°
2026-04-14 15:13 47.48819 -4.61955 34869 ft 472 kts 212°
2026-04-14 15:14 47.43271 -4.67027 34869 ft 472 kts 212°
2026-04-14 15:14 47.37680 -4.72125 34868 ft 472 kts 212°
2026-04-14 15:15 47.32093 -4.77207 34869 ft 472 kts 212°
2026-04-14 15:15 47.26501 -4.82281 34869 ft 472 kts 212°
2026-04-14 15:16 47.20906 -4.87344 34869 ft 472 kts 212°
2026-04-14 15:16 47.15304 -4.92401 34870 ft 472 kts 212°
2026-04-14 15:17 47.09706 -4.97441 34868 ft 472 kts 212°
2026-04-14 15:17 47.04107 -5.02476 34869 ft 472 kts 212°
2026-04-14 15:18 46.98510 -5.07509 34869 ft 472 kts 212°
2026-04-14 15:18 46.92951 -5.12503 34869 ft 472 kts 212°
2026-04-14 15:19 46.87348 -5.17520 34870 ft 472 kts 212°
2026-04-14 15:19 46.81745 -5.22523 34869 ft 472 kts 211°
2026-04-14 15:20 46.76141 -5.27514 34869 ft 472 kts 211°
2026-04-14 15:20 46.70526 -5.32503 34868 ft 472 kts 211°
2026-04-14 15:21 46.64921 -5.37470 34869 ft 472 kts 211°
2026-04-14 15:21 46.59306 -5.42434 34869 ft 472 kts 211°
2026-04-14 15:22 46.53724 -5.47356 34869 ft 472 kts 211°
2026-04-14 15:22 46.48113 -5.52292 34869 ft 472 kts 211°
2026-04-14 15:23 46.42494 -5.57224 34869 ft 472 kts 211°
2026-04-14 15:23 46.36876 -5.62142 34869 ft 472 kts 211°
2026-04-14 15:24 46.31252 -5.67053 34869 ft 472 kts 211°
2026-04-14 15:24 46.25630 -5.71951 34869 ft 472 kts 211°
2026-04-14 15:25 46.20005 -5.76840 34869 ft 472 kts 211°
2026-04-14 15:25 46.14380 -5.81717 34869 ft 472 kts 211°
2026-04-14 15:26 46.08746 -5.86590 34869 ft 472 kts 211°
2026-04-14 15:26 46.03145 -5.91422 34869 ft 472 kts 211°
2026-04-14 15:27 45.97507 -5.96275 34869 ft 472 kts 211°
2026-04-14 15:27 45.91864 -6.01121 34870 ft 472 kts 211°
2026-04-14 15:28 45.86229 -6.05948 34868 ft 472 kts 211°
2026-04-14 15:28 45.80590 -6.10767 34868 ft 472 kts 211°
2026-04-14 15:29 45.74947 -6.15578 34869 ft 472 kts 211°
2026-04-14 15:29 45.69302 -6.20380 34869 ft 472 kts 211°
2026-04-14 15:30 45.63654 -6.25172 34869 ft 472 kts 211°
2026-04-14 15:30 45.58040 -6.29924 34869 ft 472 kts 211°
2026-04-14 15:31 45.52383 -6.34702 34869 ft 472 kts 211°
2026-04-14 15:31 45.46732 -6.39463 34869 ft 472 kts 211°
2026-04-14 15:32 45.41075 -6.44218 34868 ft 472 kts 211°
2026-04-14 15:32 45.35419 -6.48961 34869 ft 472 kts 211°
2026-04-14 15:33 45.29760 -6.53695 34869 ft 472 kts 211°
2026-04-14 15:33 45.24123 -6.58400 34869 ft 472 kts 211°
2026-04-14 15:34 45.18460 -6.63116 34869 ft 472 kts 211°
2026-04-14 15:34 45.12791 -6.67826 34869 ft 472 kts 211°
2026-04-14 15:35 45.07116 -6.72529 34870 ft 472 kts 210°
2026-04-14 15:35 45.01446 -6.77219 34869 ft 472 kts 210°
2026-04-14 15:36 44.95807 -6.81870 34868 ft 472 kts 210°
2026-04-14 15:36 44.90137 -6.86538 34869 ft 472 kts 210°
2026-04-14 15:37 44.84402 -6.91051 34871 ft 472 kts 205°
2026-04-14 15:37 44.78217 -6.94155 34869 ft 472 kts 195°
2026-04-14 15:38 44.71888 -6.96669 34871 ft 472 kts 196°
2026-04-14 15:38 44.66626 -6.98786 34870 ft 472 kts 196°
2026-04-14 15:39 44.59283 -7.01739 34870 ft 472 kts 196°
2026-04-14 15:39 44.53983 -7.03865 34868 ft 472 kts 196°
2026-04-14 15:40 44.47658 -7.06395 34869 ft 472 kts 196°
2026-04-14 15:40 44.41381 -7.08901 34868 ft 472 kts 196°
2026-04-14 15:41 44.35053 -7.11421 34868 ft 472 kts 196°
2026-04-14 15:41 44.28733 -7.13933 34868 ft 472 kts 196°
2026-04-14 15:42 44.22404 -7.16442 34871 ft 472 kts 196°
2026-04-14 15:42 44.16078 -7.18945 34868 ft 472 kts 196°
2026-04-14 15:43 44.09756 -7.21440 34868 ft 472 kts 196°
2026-04-14 15:43 44.03428 -7.23933 34868 ft 472 kts 196°
2026-04-14 15:44 43.97105 -7.26418 34868 ft 472 kts 196°
2026-04-14 15:44 43.90819 -7.28882 34868 ft 472 kts 196°
2026-04-14 15:45 43.84485 -7.31360 34869 ft 472 kts 196°
2026-04-14 15:45 43.78145 -7.33835 34868 ft 472 kts 196°
2026-04-14 15:46 43.71822 -7.36299 34871 ft 472 kts 196°
2026-04-14 15:46 43.65486 -7.38761 34870 ft 473 kts 196°
2026-04-14 15:47 43.59132 -7.41225 34869 ft 476 kts 196°
2026-04-14 15:47 43.52820 -7.43668 34871 ft 472 kts 196°
2026-04-14 15:48 43.46467 -7.46121 34869 ft 476 kts 196°
2026-04-14 15:48 43.40138 -7.48560 34868 ft 476 kts 196°
2026-04-14 15:49 43.33832 -7.50984 34370 ft 466 kts 196°
2026-04-14 15:49 43.30710 -7.52182 33620 ft 466 kts 196°
2026-04-14 15:49 43.27580 -7.53382 32758 ft 467 kts 196°
2026-04-14 15:50 43.24442 -7.54584 31849 ft 469 kts 196°
2026-04-14 15:50 43.21287 -7.55791 30878 ft 471 kts 196°
2026-04-14 15:50 43.18138 -7.56995 30185 ft 467 kts 196°
2026-04-14 15:50 43.15027 -7.58182 29555 ft 461 kts 195°
2026-04-14 15:51 43.11986 -7.59341 28913 ft 457 kts 195°
2026-04-14 15:51 43.08939 -7.60502 28256 ft 452 kts 195°
2026-04-14 15:51 43.05927 -7.61649 27607 ft 448 kts 195°
2026-04-14 15:51 43.02935 -7.62787 26971 ft 443 kts 195°
2026-04-14 15:52 42.99970 -7.63913 26283 ft 440 kts 195°
2026-04-14 15:52 42.97037 -7.65026 25666 ft 435 kts 195°
2026-04-14 15:52 42.94110 -7.66135 24752 ft 437 kts 195°
2026-04-14 15:52 42.91212 -7.67233 24392 ft 426 kts 195°
2026-04-14 15:53 42.88409 -7.68294 24230 ft 410 kts 195°
2026-04-14 15:53 42.85708 -7.69316 23935 ft 399 kts 195°
2026-04-14 15:53 42.83057 -7.70317 23361 ft 396 kts 195°
2026-04-14 15:53 42.80407 -7.71316 22810 ft 393 kts 195°
2026-04-14 15:54 42.75175 -7.73287 21717 ft 387 kts 195°
2026-04-14 15:54 42.72593 -7.74259 21170 ft 383 kts 195°
2026-04-14 15:54 42.70069 -7.75208 20646 ft 380 kts 195°
2026-04-14 15:55 42.67531 -7.76162 20108 ft 377 kts 195°
2026-04-14 15:55 42.65010 -7.77109 19577 ft 374 kts 195°
2026-04-14 15:55 42.62514 -7.78046 19038 ft 371 kts 195°
2026-04-14 15:55 42.60032 -7.78977 18513 ft 368 kts 195°
2026-04-14 15:56 42.57571 -7.79900 17969 ft 366 kts 195°
2026-04-14 15:56 42.55131 -7.80817 17454 ft 363 kts 195°
2026-04-14 15:56 42.52701 -7.81729 16988 ft 358 kts 195°
2026-04-14 15:56 42.50344 -7.82613 16795 ft 356 kts 195°
2026-04-14 15:57 42.47937 -7.83515 16714 ft 360 kts 195°
2026-04-14 15:57 42.45528 -7.84417 16639 ft 358 kts 195°
2026-04-14 15:57 42.43127 -7.85315 16561 ft 358 kts 195°
2026-04-14 15:57 42.40726 -7.86212 16487 ft 357 kts 195°
2026-04-14 15:58 42.38333 -7.87106 16413 ft 356 kts 195°
2026-04-14 15:58 42.35947 -7.87996 16644 ft 361 kts 195°
2026-04-14 15:58 42.33477 -7.88918 16732 ft 370 kts 195°
2026-04-14 15:58 42.30991 -7.89844 16734 ft 370 kts 195°
2026-04-14 15:59 42.28507 -7.90768 16729 ft 370 kts 195°
2026-04-14 15:59 42.26019 -7.91693 16732 ft 371 kts 195°
2026-04-14 15:59 42.23532 -7.92617 16737 ft 371 kts 195°
2026-04-14 15:59 42.21075 -7.93529 16736 ft 370 kts 195°
2026-04-14 16:00 42.18586 -7.94453 16731 ft 370 kts 195°
2026-04-14 16:00 42.16152 -7.95355 16735 ft 355 kts 195°
2026-04-14 16:00 42.13824 -7.96218 16734 ft 337 kts 195°
2026-04-14 16:00 42.11612 -7.97036 16734 ft 324 kts 195°
2026-04-14 16:01 42.09418 -7.97847 16736 ft 330 kts 195°
2026-04-14 16:01 42.07205 -7.98664 16730 ft 330 kts 195°
2026-04-14 16:01 42.04996 -7.99480 16732 ft 329 kts 195°
2026-04-14 16:01 42.02789 -8.00294 16727 ft 329 kts 195°
2026-04-14 16:02 42.00578 -8.01111 16730 ft 329 kts 195°
2026-04-14 16:02 41.98397 -8.01915 16735 ft 329 kts 195°
2026-04-14 16:02 41.96189 -8.02728 16730 ft 329 kts 195°
2026-04-14 16:02 41.93987 -8.03538 16727 ft 328 kts 195°
2026-04-14 16:03 41.91791 -8.04346 16706 ft 327 kts 195°
2026-04-14 16:03 41.89591 -8.05154 16445 ft 327 kts 195°
2026-04-14 16:03 41.87394 -8.05961 16136 ft 324 kts 195°
2026-04-14 16:03 41.85257 -8.06744 16017 ft 312 kts 195°
2026-04-14 16:04 41.83212 -8.07527 15908 ft 300 kts 201°
2026-04-14 16:04 41.81450 -8.08911 15661 ft 292 kts 222°
2026-04-14 16:04 41.80199 -8.11039 15281 ft 290 kts 240°
2026-04-14 16:04 41.79206 -8.13382 14928 ft 288 kts 240°
2026-04-14 16:05 41.78219 -8.15663 14571 ft 287 kts 240°
2026-04-14 16:05 41.77209 -8.17978 14059 ft 291 kts 240°
2026-04-14 16:05 41.76167 -8.20353 13389 ft 300 kts 240°
2026-04-14 16:05 41.75091 -8.22801 12667 ft 309 kts 240°
2026-04-14 16:06 41.73989 -8.25325 11938 ft 318 kts 240°
2026-04-14 16:06 41.72889 -8.27929 11185 ft 325 kts 241°
2026-04-14 16:06 41.71767 -8.30615 10352 ft 334 kts 241°
2026-04-14 16:06 41.70614 -8.33369 9478 ft 343 kts 241°
2026-04-14 16:07 41.69463 -8.36108 8993 ft 339 kts 241°
2026-04-14 16:07 41.68324 -8.38809 8795 ft 326 kts 240°
2026-04-14 16:07 41.67238 -8.41382 8730 ft 309 kts 240°
2026-04-14 16:07 41.66208 -8.43812 8730 ft 291 kts 240°
2026-04-14 16:08 41.65235 -8.46107 8733 ft 280 kts 240°
2026-04-14 16:08 41.64263 -8.48398 8732 ft 284 kts 240°
2026-04-14 16:08 41.63307 -8.50652 8730 ft 272 kts 240°
2026-04-14 16:08 41.62397 -8.52793 8724 ft 258 kts 240°
2026-04-14 16:09 41.61508 -8.54883 8364 ft 261 kts 240°
2026-04-14 16:09 41.60600 -8.57018 7869 ft 268 kts 240°
2026-04-14 16:09 41.59655 -8.59206 7280 ft 276 kts 238°
2026-04-14 16:09 41.58601 -8.61358 6889 ft 275 kts 237°
2026-04-14 16:10 41.57558 -8.63500 6411 ft 278 kts 237°
2026-04-14 16:10 41.56494 -8.65694 5755 ft 286 kts 237°
2026-04-14 16:10 41.55400 -8.67953 5303 ft 287 kts 237°
2026-04-14 16:10 41.54341 -8.70133 5185 ft 274 kts 237°
2026-04-14 16:11 41.53323 -8.72225 5084 ft 262 kts 237°
2026-04-14 16:11 41.52136 -8.73943 4970 ft 251 kts 213°
2026-04-14 16:11 41.50543 -8.74756 4755 ft 246 kts 186°
2026-04-14 16:11 41.48850 -8.74549 4444 ft 246 kts 168°
2026-04-14 16:12 41.47181 -8.74074 4143 ft 245 kts 168°
2026-04-14 16:12 41.45520 -8.73608 3848 ft 243 kts 169°
2026-04-14 16:12 41.43870 -8.73161 3741 ft 244 kts 169°
2026-04-14 16:12 41.42200 -8.72718 3661 ft 244 kts 169°
2026-04-14 16:13 41.40523 -8.72274 3333 ft 248 kts 169°
2026-04-14 16:13 41.38815 -8.71813 2927 ft 252 kts 169°
2026-04-14 16:13 41.37061 -8.71344 2768 ft 262 kts 169°
2026-04-14 16:13 41.35278 -8.70869 2735 ft 260 kts 169°
2026-04-14 16:14 41.33506 -8.70400 2738 ft 261 kts 169°
2026-04-14 16:14 41.31735 -8.69935 2681 ft 250 kts 169°
2026-04-14 16:14 41.30201 -8.69529 2477 ft 199 kts 169°
2026-04-14 16:14 41.28874 -8.69192 1462 ft 195 kts 170°
2026-04-14 16:15 41.27574 -8.68875 842 ft 176 kts 170°
2026-04-14 16:15 41.26404 -8.68565 336 ft 164 kts 169°
2026-04-14 16:15 41.25362 -8.68283 203 ft 139 kts 169°
2026-04-14 16:15 41.24587 -8.68073 206 ft 69 kts 169°